Date,TemperatureHighF,TemperatureAvgF,TemperatureLowF,DewpointHighF,DewpointAvgF,DewpointLowF,HumidityHigh,HumidityAvg,HumidityLow,PressureMaxIn,PressureMinIn,WindSpeedMaxMPH,WindSpeedAvgMPH,GustSpeedMaxMPH,PrecipitationSumIn
2011-1-1,31.8,14.5,5.7,17.4,5.1,-1.8,73,66,53,30.14,29.88,7,2,11,0.02
2011-1-2,25.2,12.9,1.2,14.3,4.0,-7.0,73,67,61,30.16,29.99,5,1,6,0.02
2011-1-3,38.1,22.5,11.1,23.3,13.5,3.8,74,69,54,30.00,29.89,5,0,6,0.04
2011-1-4,38.5,21.7,13.6,25.5,13.4,6.6,78,71,56,30.10,29.99,6,0,6,0.02
2011-1-5,36.1,21.1,8.4,25.5,13.1,1.3,75,71,63,30.18,30.09,7,1,8,0.02
2011-1-6,40.6,21.6,9.3,26.2,13.0,2.4,76,70,55,30.21,30.09,6,0,7,0.02
2011-1-7,42.1,24.7,13.3,27.4,15.8,6.5,76,69,54,30.10,29.85,6,0,6,0.00
2011-1-8,42.4,26.2,13.8,27.9,17.5,7.1,78,70,55,29.85,29.68,6,0,6,0.00
2011-1-9,43.3,31.6,27.1,31.5,23.9,15.8,80,73,59,29.75,29.64,5,0,6,0.00
2011-1-10,36.3,25.2,12.6,16.2,10.5,1.7,64,54,40,30.17,29.75,10,1,10,0.00
2011-1-11,27.5,17.9,7.0,12.1,5.4,-4.0,65,58,46,30.26,30.16,13,2,13,0.00
2011-1-12,43.7,27.6,19.6,22.1,14.4,9.6,67,58,42,30.27,30.19,6,1,6,0.00
2011-1-13,42.1,25.7,13.3,22.7,14.4,5.4,73,63,46,30.27,30.12,6,0,6,0.00
2011-1-14,51.1,33.6,23.4,32.7,23.7,14.3,81,68,47,30.18,30.07,8,1,8,0.02
2011-1-15,47.8,32.0,20.8,32.0,23.0,14.4,77,70,53,30.17,30.04,7,1,8,0.02
2011-1-16,49.5,34.0,23.4,33.1,24.7,17.1,80,69,52,30.06,29.95,7,1,7,0.00
2011-1-17,52.9,39.6,27.7,38.3,30.6,22.6,83,71,55,29.99,29.84,7,0,8,0.00
2011-1-18,37.9,34.1,30.0,28.9,24.9,21.0,79,69,63,30.02,29.91,4,0,6,0.00
2011-1-28,44.2,35.0,32.0,25.1,21.9,19.8,67,59,46,29.97,29.95,2,0,11,0.00
2011-1-29,57.4,38.5,25.9,31.8,24.3,17.7,73,58,36,29.96,29.89,6,1,8,0.00
2011-1-30,57.7,40.6,30.6,30.7,23.3,19.0,71,53,26,29.93,29.80,8,2,10,0.00
2011-1-31,43.2,37.5,35.1,35.8,29.4,20.9,82,73,48,29.83,29.70,6,0,7,0.10
2011-2-1,33.3,25.0,11.3,23.6,14.7,-0.3,74,65,56,29.87,29.70,9,1,9,0.02
2011-2-2,19.6,12.0,8.4,7.8,2.2,-3.0,69,65,58,30.08,29.87,6,2,8,0.00
2011-2-3,30.4,22.7,7.0,11.5,6.9,-2.1,66,51,40,30.14,30.02,6,1,10,0.00
2011-2-4,46.0,28.6,15.6,26.4,15.3,6.2,69,58,41,30.06,29.92,6,1,11,0.04
2011-2-5,46.9,35.3,27.7,30.4,23.3,18.9,72,62,45,29.95,29.78,6,1,14,0.02
2011-2-6,45.0,33.0,23.4,21.4,15.7,8.7,72,51,30,30.14,29.90,9,1,10,0.00
2011-2-7,46.6,33.2,21.7,24.6,17.4,9.0,62,53,42,30.13,29.63,12,1,12,0.00
2011-2-8,35.8,29.7,16.3,26.6,20.7,7.2,81,69,57,29.96,29.63,6,0,10,0.14
2011-2-9,37.2,22.8,12.0,16.5,8.8,2.0,70,56,40,30.09,29.97,8,1,8,0.02
2011-2-10,41.0,23.1,6.6,19.9,9.2,-3.1,65,56,38,30.07,29.97,10,2,10,0.00
2011-2-11,44.8,26.7,13.3,24.8,13.9,3.8,68,59,45,30.25,30.07,6,1,7,0.00
2011-2-12,51.1,32.5,18.3,28.5,18.6,9.1,68,58,39,30.31,30.20,8,1,10,0.00
2011-2-13,55.2,37.8,25.5,31.9,22.9,16.4,69,56,37,30.21,30.07,9,1,9,0.00
2011-2-14,62.2,41.9,28.6,33.8,23.8,17.6,66,50,33,30.12,29.97,8,1,8,0.00
2011-2-15,63.7,43.5,30.4,30.5,22.5,18.7,64,46,23,30.08,29.89,13,2,13,0.00
2011-2-16,56.1,47.8,40.1,31.3,22.5,16.7,50,37,28,29.88,29.70,12,2,12,0.00
2011-2-17,60.1,44.4,32.7,30.6,25.8,16.6,60,49,26,29.92,29.75,10,2,12,0.00
2011-2-18,57.9,44.6,33.1,27.8,22.5,18.2,56,43,27,29.96,29.89,11,3,15,0.00
2011-2-19,59.4,48.0,37.4,37.7,29.8,20.5,77,50,33,29.94,29.61,11,4,14,0.18
2011-2-20,46.2,36.4,31.8,29.5,26.0,22.5,79,66,50,29.81,29.70,8,2,12,0.16
2011-2-21,50.0,37.4,30.6,34.2,27.8,23.6,80,69,49,29.91,29.82,5,0,6,0.08
2011-2-22,54.7,38.1,27.0,32.8,24.7,17.4,73,60,39,29.90,29.82,8,2,11,0.02
2011-2-23,58.6,39.7,27.5,32.5,24.0,19.9,74,56,28,29.88,29.73,8,1,12,0.00
2011-2-24,53.8,40.7,31.8,29.9,24.7,19.0,68,54,34,29.89,29.76,9,1,11,0.00
2011-2-25,45.0,39.9,35.1,28.4,24.9,20.1,65,55,38,29.85,29.67,9,3,14,0.00
2011-2-26,51.6,42.5,36.5,24.2,19.4,14.6,54,40,27,29.71,29.55,13,3,13,0.00
2011-2-27,44.8,36.8,30.0,28.1,22.0,17.9,65,55,47,29.96,29.47,13,2,15,0.00
2011-2-28,59.7,37.7,24.4,33.6,24.3,16.8,77,61,33,30.16,29.96,8,1,9,0.00
2011-3-1,61.7,43.6,28.0,31.2,22.8,16.7,67,46,26,30.11,30.01,13,1,14,0.00
2011-3-2,58.6,45.1,33.4,30.3,23.1,19.3,57,43,27,30.07,29.97,12,1,12,0.00
2011-3-3,63.3,47.0,33.6,36.5,27.7,20.8,62,48,30,30.00,29.85,8,1,13,0.00
2011-3-4,55.6,41.2,29.5,32.9,24.7,14.7,74,53,30,30.19,29.93,9,1,9,0.00
2011-3-5,58.3,40.1,26.4,24.5,16.5,12.7,60,40,20,30.20,29.99,9,1,9,0.00
2011-3-6,47.1,39.5,31.8,32.2,20.5,12.8,75,47,36,29.99,29.71,10,2,13,0.00
2011-3-7,48.2,40.3,37.0,38.6,33.5,30.2,83,77,63,29.71,29.47,13,3,14,0.10
2011-3-8,53.8,40.3,31.8,36.1,29.4,21.0,84,66,44,30.08,29.56,9,2,10,0.10
2011-3-9,62.2,41.6,27.7,33.3,25.6,19.2,72,55,33,30.24,30.08,7,1,9,0.02
2011-3-10,63.0,46.1,32.5,36.7,27.4,20.6,63,49,34,30.24,30.00,12,2,12,0.00
2011-3-11,72.1,50.2,35.1,37.9,27.6,21.6,64,44,23,30.01,29.87,8,2,10,0.00
2011-3-12,70.0,49.4,33.4,33.5,24.7,19.9,61,40,20,29.95,29.85,10,1,10,0.00
2011-3-13,69.1,51.0,41.5,33.7,28.4,20.3,58,43,24,30.14,29.91,7,1,9,0.00
2011-3-14,70.9,50.3,37.9,33.3,24.8,19.9,50,38,22,30.14,29.95,11,2,11,0.00
2011-3-15,71.8,50.6,36.5,35.8,27.1,21.3,58,42,23,30.05,29.94,8,2,10,0.00
2011-3-16,73.8,54.5,39.7,37.9,28.1,23.6,54,39,21,29.99,29.83,9,2,10,0.00
2011-3-17,64.6,56.3,47.1,32.2,28.0,23.8,52,34,26,30.05,29.86,10,2,11,0.00
2011-3-18,66.9,51.2,37.4,37.2,30.2,22.3,68,47,24,30.09,29.91,11,1,14,0.00
2011-3-19,65.7,54.8,42.6,25.9,16.7,0.7,48,25,11,29.92,29.77,9,2,12,0.00
2011-3-20,64.6,52.9,42.4,14.7,6.9,0.6,26,16,10,29.96,29.80,10,3,11,0.00
2011-3-21,62.1,52.3,39.0,34.3,17.5,3.8,74,31,14,29.80,29.67,12,3,14,0.10
2011-3-22,54.0,40.5,31.8,33.8,27.9,19.1,80,62,33,29.92,29.75,7,2,11,0.12
2011-3-23,67.8,43.1,29.1,31.4,22.5,15.5,66,47,20,30.00,29.75,12,2,12,0.02
2011-3-24,59.7,49.3,39.7,29.2,18.5,12.8,48,30,20,29.81,29.71,12,4,17,0.00
2011-3-25,59.4,45.1,33.8,26.5,19.0,12.8,45,36,26,29.81,29.66,12,3,14,0.00
2011-3-26,56.5,45.0,30.0,34.4,27.1,17.1,75,51,33,29.84,29.68,6,1,7,0.06
2011-3-27,68.0,48.0,38.3,39.6,32.7,24.0,82,59,26,29.82,29.72,9,2,12,0.06
2011-3-28,71.4,49.8,35.8,37.2,28.6,22.3,68,46,19,29.86,29.71,9,2,11,0.00
2011-3-29,62.8,46.0,32.5,23.2,15.7,9.4,43,31,17,30.03,29.87,11,2,12,0.00
2011-3-30,69.6,48.3,31.8,32.8,22.6,10.4,49,37,24,30.01,29.92,8,1,8,0.00
2011-3-31,80.8,54.8,42.6,39.5,32.7,22.2,61,46,18,30.01,29.89,9,2,12,0.00
2011-4-1,79.7,56.4,40.5,35.9,26.5,20.6,48,34,17,29.99,29.88,13,2,13,0.00
2011-4-2,76.3,60.4,43.3,35.9,26.7,18.4,38,28,21,29.91,29.70,13,3,13,0.00
2011-4-3,65.3,52.9,36.3,35.3,26.8,9.8,58,38,25,29.99,29.65,10,2,21,0.00
2011-4-4,63.7,45.6,27.1,23.2,17.4,11.5,58,34,18,30.15,29.99,9,1,13,0.00
2011-4-5,79.9,50.3,32.7,32.4,20.8,11.4,46,33,17,30.08,29.75,8,1,8,0.00
2011-4-6,64.2,51.1,38.7,35.5,23.9,15.1,67,36,21,29.87,29.76,14,1,14,0.10
2011-4-7,64.9,50.0,41.2,43.7,35.5,26.3,82,61,31,29.85,29.58,9,2,12,0.20
2011-4-8,61.0,54.1,48.9,33.2,28.3,23.0,47,38,25,29.69,29.60,14,3,14,0.02
2011-4-9,53.4,45.1,34.7,35.7,29.7,21.2,78,56,40,29.83,29.62,18,2,18,0.14
2011-4-10,65.5,41.8,30.2,32.0,25.2,20.3,71,54,27,30.10,29.84,8,2,12,0.02
2011-4-11,70.3,45.0,29.8,32.5,23.8,16.4,61,45,24,30.17,29.98,6,1,8,0.00
2011-4-12,49.1,43.4,38.3,23.1,21.8,19.9,53,42,34,29.98,29.89,10,2,11,0.00
2011-4-13,74.8,61.9,53.4,31.4,24.3,17.5,29,24,17,29.82,29.69,12,3,12,0.00
2011-4-14,65.1,51.1,41.7,26.8,19.0,8.7,48,29,16,30.05,29.74,10,2,12,0.00
2011-4-15,72.5,49.7,37.6,22.5,15.3,10.5,33,26,14,30.10,29.97,6,1,9,0.00
2011-4-16,79.2,53.0,36.5,34.0,21.3,10.5,40,30,17,30.00,29.84,7,1,9,0.00
2011-4-17,76.6,58.3,43.5,39.2,29.8,23.2,48,35,21,29.86,29.71,11,2,14,0.00
2011-4-18,71.2,58.4,45.3,38.1,31.8,27.2,51,38,25,29.76,29.63,9,2,16,0.00
2011-4-19,68.7,55.7,45.1,46.5,37.9,31.2,78,54,27,29.86,29.72,12,1,15,0.12
2011-4-20,73.2,58.7,25.9,40.2,33.9,28.6,61,41,23,29.91,29.76,7,1,13,0.02
2011-4-21,73.4,61.6,51.6,38.1,28.4,12.8,54,31,12,29.86,29.69,16,2,16,0.00
2011-4-22,67.3,52.7,37.9,35.8,27.3,20.3,51,38,27,29.85,29.74,10,0,10,0.00
2011-4-23,63.3,54.3,45.7,43.1,33.5,26.4,75,47,35,29.81,29.70,7,0,8,0.14
2011-4-24,60.4,50.5,45.3,46.0,41.8,39.2,82,72,55,29.81,29.69,8,1,9,0.22
2011-4-25,64.0,49.5,39.4,44.9,38.8,34.1,86,69,42,29.86,29.66,9,1,10,0.33
2011-4-26,54.3,46.3,38.5,39.5,32.4,19.9,80,60,36,29.89,29.62,10,1,15,0.08
2011-4-27,60.8,44.6,32.2,31.3,24.5,19.8,65,47,29,30.09,29.89,6,0,10,0.02
2011-4-28,71.1,52.5,34.7,34.7,26.2,20.3,59,38,22,30.11,29.76,9,2,10,0.00
2011-4-29,69.6,59.6,41.5,35.6,25.1,14.4,33,27,16,29.86,29.60,16,3,19,0.00
2011-4-30,55.6,42.6,33.3,22.2,16.0,9.3,46,35,26,29.90,29.84,12,1,12,0.00
2011-5-1,53.2,42.0,30.6,23.5,19.6,15.4,54,41,31,30.07,29.88,6,0,10,0.00
2011-5-2,62.8,46.4,32.4,29.0,22.0,14.6,60,40,21,30.20,30.07,6,0,8,0.00
2011-5-3,70.2,51.7,35.2,26.6,19.2,13.8,46,30,16,30.19,29.98,10,1,12,0.00
2011-5-4,74.3,56.6,38.3,34.8,23.4,14.9,42,29,18,30.11,29.98,7,1,11,0.00
2011-5-5,75.9,57.6,41.7,27.2,20.2,15.4,36,25,12,30.13,29.97,9,1,11,0.00
2011-5-6,80.2,65.1,43.5,29.3,23.6,17.4,36,22,12,29.95,29.81,7,1,13,0.00
2011-5-7,82.2,63.8,45.0,33.0,24.0,12.7,43,25,10,29.89,29.73,9,1,10,0.00
2011-5-8,81.1,69.1,57.6,29.6,20.0,14.0,25,16,12,29.78,29.61,9,2,19,0.00
2011-5-9,66.7,59.3,47.1,38.9,26.2,16.0,60,30,16,29.70,29.57,14,2,14,0.00
2011-5-10,66.4,53.0,37.9,30.3,21.2,12.5,58,33,13,29.73,29.64,8,2,10,0.00
2011-5-11,63.1,52.8,46.2,34.8,30.0,23.1,55,42,32,29.93,29.67,7,0,7,0.00
2011-5-12,70.9,54.6,37.8,38.8,32.4,26.6,66,45,29,30.09,29.92,5,0,8,0.00
2011-5-13,78.6,59.6,40.3,35.6,30.1,25.3,58,36,19,30.10,29.91,8,0,9,0.00
2011-5-14,78.3,65.8,53.4,33.9,28.6,21.7,39,26,17,29.92,29.70,12,2,16,0.00
2011-5-15,81.7,68.1,55.2,33.3,26.3,17.4,37,22,13,29.87,29.74,11,1,11,0.00
2011-5-16,77.4,64.0,47.5,25.6,21.1,17.0,35,21,12,29.86,29.69,9,1,11,0.00
2011-5-17,69.6,60.1,53.4,31.5,25.3,20.4,40,27,19,29.77,29.64,6,1,11,0.00
2011-5-18,57.6,49.4,43.5,41.1,35.2,21.4,80,62,25,29.68,29.55,8,1,9,0.39
2011-5-19,51.3,45.3,41.7,45.0,39.2,36.0,84,79,72,29.81,29.61,10,1,11,0.31
2011-5-20,57.7,48.5,43.0,47.1,41.8,38.4,86,78,59,29.91,29.80,10,0,10,0.31
2011-5-21,68.5,57.4,39.6,48.4,41.9,35.3,87,59,37,29.94,29.86,6,0,6,0.14
2011-5-22,74.5,59.3,47.7,45.0,39.4,33.4,67,50,27,29.89,29.77,13,2,14,0.00
2011-5-23,75.6,62.6,48.9,41.8,33.7,22.0,65,37,19,29.83,29.68,14,2,14,0.00
2011-5-24,64.6,58.5,52.5,43.4,35.4,24.1,54,43,23,29.94,29.69,6,1,13,0.00
2011-5-25,73.2,58.3,43.3,41.8,36.6,31.8,70,47,24,30.02,29.93,10,1,11,0.00
2011-5-26,81.3,66.7,55.9,35.1,31.2,28.1,45,28,16,29.93,29.71,12,2,13,0.00
2011-5-27,81.3,68.2,46.0,37.5,34.5,30.4,56,31,18,29.88,29.70,12,1,12,0.00
2011-5-28,86.4,69.4,50.5,41.7,36.2,33.0,54,32,17,29.73,29.50,12,2,15,0.00
2011-5-29,83.5,72.1,63.7,35.9,32.6,27.7,33,24,15,29.57,29.46,14,3,16,0.00
2011-5-30,68.5,59.6,50.2,28.4,23.6,16.5,37,26,17,30.04,29.74,6,1,11,0.00
2011-5-31,81.0,60.1,43.3,25.0,20.5,17.3,36,24,10,30.11,29.98,7,1,11,0.00
2011-6-1,85.3,72.7,61.2,40.1,26.7,18.9,28,19,14,30.03,29.84,10,1,10,0.00
2011-6-2,83.5,70.1,54.0,99.9,20.6,9.8,28,16,10,29.91,29.78,11,1,16,0.00
2011-6-3,80.2,62.5,44.2,24.5,20.0,15.8,37,22,10,29.95,29.85,6,0,7,0.00
2011-6-4,87.6,69.1,49.8,29.6,23.7,19.4,32,20,10,30.07,29.93,9,1,12,0.00
2011-6-5,89.4,72.0,55.6,37.7,30.7,24.1,33,23,13,30.12,29.93,6,0,10,0.00
2011-6-6,89.6,75.3,59.9,39.2,29.7,19.0,37,21,10,29.97,29.78,15,2,16,0.00
2011-6-7,82.2,66.9,49.6,28.1,20.2,13.4,28,18,11,29.94,29.83,7,0,12,0.00
2011-6-8,85.6,69.2,49.6,99.9,22.9,13.2,32,18,10,29.92,29.75,6,1,11,0.00
2011-6-9,82.2,68.8,54.0,30.3,24.6,13.9,29,20,12,29.95,29.85,11,1,11,0.00
2011-6-10,85.1,68.8,54.3,35.0,27.7,21.7,36,23,12,29.98,29.84,10,1,10,0.00
2011-6-11,86.7,70.5,53.8,36.5,25.9,12.9,36,21,10,29.89,29.78,7,1,11,0.00
2011-6-12,85.8,71.7,55.9,32.2,23.4,12.3,28,18,10,29.91,29.83,7,1,8,0.00
2011-6-13,86.4,70.0,52.3,29.9,24.8,19.1,34,20,10,29.98,29.85,10,0,11,0.00
2011-6-14,80.4,64.8,57.0,38.3,29.8,22.6,36,27,21,30.04,29.92,6,0,6,0.00
2011-6-15,90.0,84.7,69.6,37.3,33.8,31.6,26,17,14,29.84,29.77,5,0,6,0.00
2011-6-16,90.7,81.0,62.4,38.4,31.8,24.8,34,18,11,29.80,29.63,9,2,11,0.00
2011-6-17,79.0,71.0,58.3,41.7,35.8,29.3,45,29,18,29.87,29.74,6,0,12,0.00
2011-6-18,87.1,71.9,55.9,37.3,31.3,27.4,39,24,13,29.92,29.75,10,1,10,0.00
2011-6-19,83.1,71.7,57.7,38.5,28.9,20.8,46,22,15,29.79,29.58,10,3,18,0.00
2011-6-20,76.6,64.9,53.1,45.0,41.2,36.9,61,44,29,29.91,29.78,9,0,9,0.00
2011-6-21,86.5,70.1,54.1,43.6,37.8,27.2,55,34,17,29.98,29.90,6,1,9,0.00
2011-6-22,92.5,74.5,58.1,41.6,34.4,27.8,39,25,11,30.02,29.91,11,2,11,0.00
2011-6-23,94.8,77.0,61.0,37.6,32.3,26.2,33,22,11,29.97,29.83,12,1,12,0.00
2011-6-24,93.9,74.4,57.4,99.9,32.2,25.4,36,22,10,29.93,29.80,7,1,114,0.00
2011-6-25,93.4,75.2,57.0,99.9,30.0,17.0,35,19,10,29.93,29.81,7,1,10,0.00
2011-6-26,93.0,79.3,66.0,99.9,41.1,17.7,28,13,10,29.94,29.82,8,1,8,0.00
2011-6-27,94.8,75.7,56.3,37.1,27.3,17.9,29,18,10,29.98,29.87,7,0,13,0.00
2011-6-28,97.3,80.5,61.3,39.5,34.7,30.6,34,21,12,30.00,29.90,12,1,13,0.00
2011-6-29,94.1,82.6,73.2,44.6,41.4,37.8,34,24,16,29.99,29.83,14,2,19,0.00
2011-6-30,87.6,78.9,66.9,49.1,39.7,29.0,37,26,13,29.98,29.87,13,2,19,0.00
2011-7-1,93.7,75.2,59.7,40.7,37.1,34.0,41,27,15,30.01,29.91,11,1,11,0.00
2011-7-2,97.5,79.5,62.8,42.5,36.2,28.9,37,23,10,30.03,29.92,8,1,11,0.00
2011-7-3,97.7,83.8,74.1,50.1,44.4,35.9,33,26,15,30.05,29.93,11,2,14,0.00
2011-7-4,96.6,80.2,65.8,50.9,46.2,42.6,46,32,18,30.05,29.91,7,1,10,0.00
2011-7-5,94.8,79.8,72.0,52.1,47.9,42.5,45,34,21,30.08,29.94,10,1,16,0.00
2011-7-6,94.8,80.5,68.9,55.4,51.1,46.1,56,38,21,30.08,29.93,6,0,8,0.00
2011-7-7,93.7,83.9,72.3,57.2,52.1,47.8,52,35,25,30.06,29.89,7,1,82,0.00
2011-7-8,95.5,80.1,67.8,53.5,50.0,43.9,51,37,19,29.99,29.84,7,1,11,0.00
2011-7-9,92.8,80.4,66.4,57.3,52.1,47.0,60,40,24,30.00,29.87,18,2,18,0.00
2011-7-10,87.1,75.7,68.2,56.4,52.9,49.1,60,46,30,30.01,29.90,6,1,11,0.00
2011-7-11,89.1,76.3,66.7,59.3,53.6,46.9,73,47,26,30.07,29.91,9,1,16,0.24
2011-7-12,81.5,70.4,63.0,63.5,58.4,53.9,82,67,48,30.06,29.97,6,1,8,0.31
2011-7-13,88.5,72.2,60.1,99.9,53.7,49.5,73,52,28,30.01,29.84,9,1,114,0.00
2011-7-14,86.2,73.1,59.5,52.0,42.1,33.2,60,36,17,29.97,29.85,6,0,6,0.00
2011-7-15,89.2,72.7,57.4,42.7,37.2,33.8,43,29,17,29.97,29.85,6,0,10,0.00
2011-7-16,80.4,73.2,64.8,53.5,43.1,35.7,48,35,23,29.98,29.88,7,1,8,0.00
2011-7-17,94.1,85.1,75.0,55.6,50.8,46.8,42,32,21,30.05,29.94,12,2,12,0.00
2011-7-18,91.0,81.5,70.5,57.5,54.7,51.3,60,41,27,30.12,29.97,10,1,10,0.02
2011-7-19,87.3,75.2,65.7,59.4,55.4,51.2,70,52,33,30.10,29.96,8,1,12,0.02
2011-7-20,93.0,78.7,66.4,56.1,51.3,47.1,60,41,22,30.03,29.89,6,1,7,0.00
2011-7-21,92.3,77.6,66.0,53.8,46.6,37.9,55,36,18,29.98,29.85,9,1,9,0.00
2011-7-22,93.4,78.2,64.0,48.1,40.6,35.8,40,28,16,29.95,29.83,11,1,14,0.00
2011-7-23,94.8,78.2,61.9,42.3,37.8,32.0,42,26,13,30.02,29.88,6,0,6,0.00
2011-7-24,97.3,81.6,68.9,52.3,45.4,38.0,37,29,19,30.08,29.98,10,2,12,0.00
2011-7-25,95.9,81.8,69.8,58.0,52.1,46.0,64,37,24,30.08,29.91,9,1,12,0.08
2011-7-26,83.3,72.7,65.8,63.7,60.6,57.1,79,67,49,30.00,29.93,4,0,7,0.20
2011-7-27,87.6,73.3,62.2,61.6,56.7,50.4,80,59,32,30.02,29.91,6,0,10,0.02
2011-7-28,91.8,77.6,63.1,54.1,49.6,42.6,64,41,22,30.04,29.95,7,1,7,0.00
2011-7-29,93.9,79.4,66.0,54.0,48.9,42.7,51,36,24,30.07,29.95,9,1,10,0.00
2011-7-30,92.5,77.1,66.6,58.5,53.9,49.8,75,47,27,30.16,30.01,11,2,14,0.16
2011-7-31,89.8,75.0,66.0,58.5,56.4,52.3,75,55,32,30.16,30.01,8,1,12,0.08
2011-8-1,89.8,78.6,65.8,60.5,57.8,55.5,72,51,34,30.13,30.02,8,1,10,0.00
2011-8-2,92.5,77.1,65.3,59.8,56.0,52.7,69,50,29,30.11,29.97,7,1,12,0.00
2011-8-3,90.3,76.5,64.6,58.0,52.5,47.3,69,46,24,30.08,29.91,10,0,10,0.06
2011-8-4,90.0,75.2,64.9,59.7,54.6,49.3,73,52,27,30.07,29.93,7,0,13,0.06
2011-8-5,92.1,77.2,63.7,53.8,48.2,42.2,57,38,21,30.05,29.93,6,0,7,0.00
2011-8-6,93.0,77.4,65.1,48.5,41.9,33.2,47,31,16,30.06,29.95,6,0,9,0.00
2011-8-7,92.5,75.7,58.8,41.2,35.3,27.2,42,25,13,30.04,29.91,5,0,7,0.00
2011-8-8,93.0,74.4,57.4,36.5,30.7,26.6,37,22,10,30.02,29.91,5,0,11,0.00
2011-8-9,93.0,75.7,58.8,44.8,35.2,26.3,35,24,14,29.97,29.89,9,1,12,0.00
2011-8-10,93.7,77.7,63.3,51.8,46.0,42.5,50,34,21,29.96,29.85,6,1,11,0.00
2011-8-11,92.7,81.5,70.9,55.0,49.9,43.7,50,35,24,29.99,29.89,11,2,12,0.00
2011-8-12,95.2,77.9,64.4,48.2,43.2,35.8,47,32,15,30.01,29.90,7,0,10,0.00
2011-8-13,92.5,78.4,63.1,49.5,42.5,36.0,38,29,19,30.06,29.92,10,1,17,0.00
2011-8-14,86.7,76.9,71.6,54.7,51.2,47.7,52,41,30,30.09,29.97,7,1,10,0.00
2011-8-15,92.7,76.9,61.5,55.4,50.6,41.8,63,43,23,30.02,29.89,8,0,9,0.00
2011-8-16,95.2,78.2,64.2,53.6,46.6,40.8,50,35,20,30.03,29.94,6,0,6,0.00
2011-8-17,97.2,80.3,64.8,51.2,45.9,39.5,45,32,19,30.12,29.98,8,0,8,0.00
2011-8-18,96.1,81.1,70.7,54.9,51.1,46.2,47,37,19,30.10,29.94,12,2,14,0.00
2011-8-19,91.6,78.7,70.0,56.0,52.6,48.4,58,42,26,30.05,29.87,4,0,10,0.00
2011-8-20,91.8,75.9,65.8,57.2,51.6,47.2,59,44,26,30.06,29.93,13,1,18,0.06
2011-8-21,91.2,75.3,61.5,59.1,54.6,51.3,70,51,33,30.11,29.98,10,1,10,0.06
2011-8-22,94.8,78.7,65.3,58.5,52.7,48.7,61,43,24,30.12,29.99,12,1,12,0.00
2011-8-23,96.6,79.0,65.8,63.4,50.5,44.5,52,38,22,30.08,29.95,6,1,7,0.04
2011-8-24,95.4,77.8,64.9,56.8,48.5,42.5,46,37,20,30.09,29.96,8,1,11,0.06
2011-8-25,92.5,76.9,65.5,54.9,51.7,48.5,56,43,25,30.13,29.99,8,1,10,0.06
2011-8-26,95.4,80.3,68.5,59.7,53.7,50.0,62,42,24,30.16,30.02,6,0,7,0.04
2011-8-27,94.3,78.4,68.2,60.4,56.1,51.6,68,49,27,30.15,30.01,7,0,8,0.08
2011-8-28,97.3,80.6,67.8,57.2,53.0,50.3,56,40,24,30.08,29.93,9,1,13,0.06
2011-8-29,92.5,78.9,64.0,59.7,55.0,50.0,72,46,27,30.04,29.90,7,0,10,0.12
2011-8-30,91.8,76.3,62.2,54.3,50.2,46.4,60,42,24,29.99,29.87,8,0,8,0.00
2011-8-31,81.7,73.0,65.1,55.8,49.2,44.3,54,43,36,30.05,29.91,10,1,16,0.00
2011-9-1,91.0,78.8,68.7,52.6,49.1,45.7,49,36,24,30.02,29.92,15,2,19,0.00
2011-9-2,93.4,76.0,63.7,55.2,48.7,38.2,61,41,20,30.02,29.92,8,0,10,0.00
2011-9-3,92.5,75.9,63.7,42.3,38.4,31.3,41,28,15,30.00,29.91,8,1,11,0.00
2011-9-4,102.4,78.6,66.6,52.5,40.9,29.7,45,28,14,30.06,29.95,13,2,15,0.00
2011-9-5,92.5,77.2,65.5,51.5,47.3,39.2,52,37,19,30.08,29.94,16,3,18,0.00
2011-9-6,93.0,72.6,65.7,56.4,51.9,48.4,66,49,28,30.10,30.02,4,0,4,0.02
2011-9-7,98.4,73.1,57.0,54.6,48.3,40.4,74,46,18,30.15,30.07,5,0,6,0.02
2011-9-8,91.2,69.7,54.3,50.3,43.5,37.2,60,41,20,30.17,30.01,6,0,8,0.00
2011-9-9,75.0,65.6,61.7,47.6,44.0,37.5,53,46,38,30.11,30.01,11,1,14,0.02
2011-9-10,79.5,66.4,60.1,48.6,44.8,42.9,54,46,31,30.12,30.03,9,1,13,0.02
2011-9-11,88.5,69.1,61.5,53.7,47.5,41.7,62,47,25,30.17,30.04,8,1,8,0.00
2011-9-12,82.6,68.8,57.0,53.9,48.1,43.0,74,51,27,30.23,30.11,4,0,7,0.02
2011-9-13,67.5,60.5,57.9,49.7,46.0,43.2,61,59,53,30.16,30.15,2,0,4,0.00
2011-9-14,59.5,58.5,57.0,50.5,49.7,49.0,79,73,68,30.01,29.98,2,0,8,0.37
2011-9-15,70.7,62.7,55.4,56.2,51.5,48.8,79,67,59,29.98,29.92,5,0,8,0.29
2011-9-16,78.1,62.4,55.0,55.3,50.6,48.2,80,67,42,30.04,29.92,9,1,10,0.31
2011-9-17,177.4,51.8,53.6,99.9,56.5,48.1,85,72,66,30.10,29.98,19,1,114,0.59
2011-9-18,177.6,50.2,50.9,99.9,60.8,45.3,82,54,45,30.17,30.08,6,0,114,0.06
2011-9-19,82.9,64.1,53.4,52.3,47.9,43.1,71,57,34,30.16,30.02,7,1,9,0.00
2011-9-20,81.3,65.8,54.7,50.7,45.6,41.8,64,50,29,30.08,29.96,7,1,7,0.00
2011-9-21,85.6,63.5,55.0,99.9,45.0,34.6,60,40,23,30.05,29.97,7,1,9,0.00
2011-9-22,85.5,66.5,53.4,43.6,38.5,34.2,52,37,21,30.12,30.02,7,1,9,0.00
2011-9-23,86.9,66.1,52.7,42.7,37.7,34.1,50,37,18,30.19,30.05,7,1,8,0.00
2011-9-24,86.9,66.2,52.9,41.1,36.6,32.9,50,35,19,30.10,29.96,8,1,10,0.00
2011-9-25,86.2,68.6,52.9,38.5,35.4,30.9,45,31,17,29.99,29.88,6,0,6,0.00
2011-9-26,85.3,67.0,53.8,42.8,36.4,30.9,43,33,20,30.02,29.90,5,0,8,0.00
2011-9-27,86.7,67.4,54.7,42.8,37.3,32.6,47,35,20,30.09,30.00,8,1,8,0.00
2011-9-28,87.1,69.7,54.5,42.3,38.1,33.0,48,33,20,30.11,29.99,6,1,8,0.00
2011-9-29,85.6,69.5,56.3,41.7,37.1,31.7,42,32,19,30.09,30.00,10,2,12,0.00
2011-9-30,84.4,72.3,64.2,45.2,41.3,37.9,40,33,23,30.17,30.03,14,3,16,0.00
2011-10-1,89.6,65.2,51.6,45.8,40.2,36.3,57,41,20,30.13,30.03,8,1,9,0.41
2011-10-2,88.5,57.6,47.8,99.9,45.8,36.9,92,46,25,30.15,30.04,5,0,114,0.41
2011-10-3,88.5,63.7,49.5,50.0,43.1,39.7,70,49,25,30.11,29.97,8,0,9,0.02
2011-10-4,65.1,43.8,51.3,99.9,60.4,42.0,89,47,43,30.03,29.91,16,2,114,0.29
2011-10-5,176.7,53.8,49.8,99.9,46.0,40.3,88,61,45,29.89,29.71,9,1,114,0.04
2011-10-6,58.6,36.6,31.3,99.9,47.9,27.0,93,59,35,29.84,29.58,6,0,114,0.59
2011-10-7,177.6,29.2,32.2,99.9,51.8,28.5,92,62,66,29.90,29.83,8,0,114,0.16
2011-10-8,177.6,15.5,29.1,99.9,73.8,26.3,92,33,55,30.02,29.88,0,0,114,0.02
2011-10-9,177.6,1.5,39.4,99.9,99.1,34.1,81,1,81,30.04,29.96,0,0,0,0.00
2011-10-10,177.6,20.9,34.0,99.9,74.4,29.8,85,21,27,30.02,29.90,3,0,114,0.00
2011-10-11,176.5,10.6,38.8,99.9,89.0,30.9,81,11,38,29.98,29.88,6,0,114,0.00
2011-10-12,176.5,36.6,13.6,99.9,52.5,9.4,87,38,20,30.07,29.98,4,0,114,0.00
2011-10-13,79.0,52.1,37.9,32.3,28.0,23.1,65,43,16,30.08,29.96,6,0,10,0.00
2011-10-14,82.2,56.5,43.3,38.5,32.2,29.5,61,43,17,30.05,29.97,8,1,10,0.00
2011-10-15,86.0,60.5,47.5,40.0,33.6,30.4,54,39,16,30.09,29.99,8,1,13,0.00
2011-10-16,84.2,58.1,41.2,38.5,31.9,27.8,64,40,15,30.06,29.95,9,0,11,0.02
2011-10-17,73.6,40.7,36.9,99.9,44.4,25.2,77,38,19,30.10,29.95,5,0,114,0.02
2011-10-18,177.4,9.9,49.3,99.9,89.1,17.2,23,3,15,30.15,30.06,3,0,114,0.00
2011-10-19,177.4,22.9,46.0,99.9,71.2,19.4,36,9,15,30.09,29.93,0,0,114,0.00
2011-10-20,177.4,4.3,37.2,99.9,95.4,20.3,50,2,17,30.06,29.95,0,0,114,0.04
2011-10-21,177.1,2.4,37.4,99.9,95.9,22.3,56,3,52,30.13,30.05,75,2,114,0.04
2011-10-22,177.1,23.3,36.7,99.9,73.5,22.6,58,12,18,30.14,30.05,5,0,114,0.04
2011-10-23,177.1,0.0,177.1,99.9,99.9,99.9,0,0,100,30.13,30.04,0,0,0,0.00
2011-10-24,177.1,11.2,47.3,99.9,86.7,22.8,41,5,18,30.09,29.94,0,0,114,0.00
2011-10-25,177.6,8.5,48.0,99.9,87.3,25.8,47,8,39,30.01,29.88,0,0,0,0.00
2011-10-26,177.6,0.5,45.1,99.9,99.2,42.7,91,1,91,29.91,29.80,0,0,114,0.00
2011-10-27,176.5,30.6,32.7,99.9,58.8,24.7,72,30,34,30.05,29.91,8,1,11,0.16
2011-10-28,67.8,43.2,28.2,34.3,27.4,23.4,83,58,27,30.17,30.06,12,1,12,0.00
2011-10-29,67.3,45.0,30.9,99.9,27.8,23.2,77,52,24,30.13,30.02,8,1,114,0.00
2011-10-30,74.5,42.9,28.2,99.9,35.3,20.7,75,43,21,30.15,30.07,10,1,114,0.00
2011-10-31,77.4,50.7,36.5,99.9,29.5,24.7,62,45,20,30.12,29.97,10,2,11,0.00
2011-11-1,77.5,51.4,34.9,99.9,28.9,21.8,64,41,16,29.96,29.74,16,2,114,0.00
2011-11-2,62.8,42.0,32.4,25.8,22.1,17.3,62,47,24,30.23,29.89,11,2,17,0.00
2011-11-3,176.5,43.3,28.0,99.9,21.7,13.5,69,39,19,30.21,29.92,16,4,114,0.00
2011-11-4,62.2,55.5,47.3,24.7,19.6,12.9,28,25,20,29.92,29.56,20,6,20,0.00
2011-11-5,55.4,39.6,29.3,99.9,32.4,21.3,87,63,27,29.82,29.45,19,4,114,0.35
2011-11-6,45.3,37.6,31.3,31.2,27.7,24.6,81,68,48,29.89,29.81,9,1,11,0.02
2011-11-7,48.4,40.2,34.3,34.1,30.5,27.6,86,69,47,29.87,29.75,13,2,13,0.00
2011-11-8,57.9,39.2,27.3,31.4,26.3,20.2,86,63,32,30.16,29.83,12,2,15,0.00
2011-11-9,61.5,37.3,25.3,32.3,23.3,17.6,77,60,31,30.31,30.16,12,2,12,0.00
2011-11-10,62.4,37.9,24.1,34.2,24.1,16.0,76,60,35,30.33,30.13,8,1,10,0.00
2011-11-11,45.7,38.9,28.2,28.4,25.3,18.5,75,59,46,30.11,29.86,8,1,9,0.00
2011-11-12,65.1,46.0,33.3,29.5,25.5,22.4,70,47,24,29.88,29.72,15,2,15,0.00
2011-11-13,47.1,43.6,34.5,99.9,35.2,28.1,86,70,51,29.83,29.75,8,1,114,0.08
2011-11-14,62.4,38.8,30.7,99.9,39.6,27.3,91,65,43,29.87,29.79,7,1,114,0.06
2011-11-15,63.0,41.7,27.9,38.1,29.7,23.3,84,65,36,29.91,29.84,9,1,10,0.00
2011-11-16,65.1,42.5,28.8,27.8,16.5,9.5,69,39,15,30.15,29.91,9,2,16,0.00
2011-11-17,70.9,42.2,26.2,25.8,16.8,11.1,53,38,18,30.14,29.87,11,3,15,0.00
2011-11-18,64.2,45.8,31.8,31.2,23.1,17.5,60,42,25,29.87,29.63,13,3,14,0.08
2011-11-19,68.0,50.3,32.9,28.8,23.0,19.4,58,36,20,29.83,29.64,11,2,13,0.08
2011-11-20,65.7,47.0,34.5,29.6,24.7,20.1,58,43,26,29.94,29.83,11,2,15,0.00
2011-11-21,61.3,45.0,33.1,41.0,33.1,24.8,80,64,42,30.08,29.90,11,3,15,0.00
2011-11-22,66.6,42.8,25.5,38.7,29.0,21.6,87,63,28,30.20,30.08,7,0,9,0.00
2011-11-23,70.0,46.5,30.7,37.9,29.5,22.4,73,54,31,30.20,30.02,13,3,14,0.00
2011-11-24,176.5,40.7,30.9,99.9,36.9,19.4,66,36,25,30.02,29.87,12,2,16,0.00
2011-11-25,61.0,28.4,39.6,99.9,58.3,16.4,82,32,34,30.07,29.85,14,2,114,0.02
2011-11-26,58.8,38.1,24.4,15.4,7.0,0.0,49,30,13,30.33,30.07,11,2,12,0.00
2011-11-27,60.6,32.8,19.6,99.9,21.5,3.2,58,30,15,30.38,30.25,9,2,114,0.00
2011-11-28,59.4,30.0,20.8,99.9,25.8,8.9,67,40,19,30.26,30.12,6,1,114,0.00
2011-11-29,177.6,36.1,26.4,99.9,31.7,12.1,62,33,19,30.19,30.11,6,1,114,0.00
2011-11-30,176.5,36.5,27.7,99.9,36.4,13.5,64,31,16,30.11,29.66,15,3,114,0.00
2011-12-1,57.9,47.3,39.6,32.8,21.8,14.9,76,39,23,29.93,29.67,19,6,22,0.02
2011-12-2,43.5,38.0,32.2,27.8,22.4,18.5,73,54,42,29.93,29.69,21,6,24,0.02
2011-12-3,38.8,34.4,30.0,31.2,26.8,20.7,83,74,64,29.94,29.68,9,2,13,0.00
2011-12-4,39.4,29.9,21.4,21.4,18.5,14.3,76,63,42,29.94,29.83,8,1,11,0.00
2011-12-5,37.2,23.5,12.0,22.9,14.5,4.4,81,69,55,30.07,29.89,6,0,10,0.00
2011-12-6,42.6,21.9,5.2,15.2,7.2,-0.8,77,56,28,30.15,30.06,13,2,13,0.00
2011-12-7,52.7,27.5,12.7,21.5,10.9,4.5,72,52,28,30.19,30.02,7,1,13,0.00
2011-12-8,50.7,27.5,13.8,21.8,12.7,7.3,77,56,30,30.05,29.97,11,1,12,0.00
2011-12-9,55.9,28.2,11.5,24.8,13.7,5.5,78,58,28,30.19,30.05,8,0,9,0.00
2011-12-10,177.1,30.5,16.7,99.9,23.1,9.9,76,52,29,30.19,30.02,5,1,114,0.00
2011-12-11,176.9,27.4,19.0,99.9,45.8,12.6,77,31,28,30.01,29.84,13,2,114,0.00
2011-12-12,46.6,39.2,31.3,34.7,25.6,16.0,81,60,38,29.88,29.78,14,6,24,0.06
2011-12-13,49.5,41.4,34.3,37.7,34.6,30.8,89,77,58,29.85,29.75,20,4,20,0.16
2011-12-14,39.4,34.9,28.8,33.6,30.6,24.8,89,84,77,30.05,29.80,7,1,9,0.16
2011-12-15,52.7,32.7,22.6,33.0,23.3,16.8,87,70,45,30.10,30.02,9,1,12,0.00
2011-12-16,59.2,35.0,23.0,32.0,22.1,15.6,76,62,34,30.23,30.10,10,2,12,0.00
2011-12-17,63.5,35.5,21.2,28.9,20.3,13.8,76,57,25,30.25,30.11,11,2,11,0.00
2011-12-18,59.5,37.1,21.0,30.8,22.8,15.5,81,59,31,30.12,29.80,8,1,10,0.00
2011-12-19,49.1,35.3,29.1,31.5,26.1,21.7,81,70,50,29.88,29.68,8,1,10,0.00
2011-12-20,57.0,38.4,29.3,38.7,30.1,23.9,86,74,42,29.90,29.82,5,1,8,0.00
2011-12-21,53.8,34.4,25.2,33.7,25.1,16.4,86,70,40,29.86,29.74,9,1,11,0.00
2011-12-22,39.9,26.0,14.2,22.5,15.8,8.0,79,66,47,30.09,29.85,8,0,8,0.00
2011-12-23,53.8,28.5,14.9,21.2,12.3,6.9,75,54,27,30.20,30.09,12,1,12,0.00
2011-12-24,53.1,27.7,13.6,23.2,12.9,5.9,74,56,30,30.27,30.18,6,1,9,0.00
2011-12-25,56.8,29.5,13.3,24.4,13.9,7.1,77,56,28,30.30,30.10,7,1,8,0.00
2011-12-26,57.2,30.2,13.3,23.2,14.6,7.7,79,56,27,30.14,30.04,11,2,11,0.00
2011-12-27,60.6,33.4,17.8,26.1,14.9,8.3,71,50,25,30.16,30.04,8,1,11,0.00
2011-12-28,59.9,31.7,13.8,25.5,14.8,7.6,79,54,24,30.20,30.10,9,1,10,0.00
2011-12-29,65.1,38.2,23.2,26.0,17.7,13.1,72,48,19,30.14,29.95,6,0,10,0.00
2011-12-30,73.6,42.9,26.1,33.7,24.0,15.6,75,51,22,30.08,29.93,10,1,13,0.00
2011-12-31,61.2,41.1,23.5,31.7,14.3,3.4,80,38,16,30.25,29.91,13,2,22,0.00
2012-1-1,64.6,35.7,19.2,15.4,8.3,3.5,52,35,14,30.37,30.24,6,1,11,0.00
2012-1-2,65.3,35.6,18.7,21.6,13.1,7.9,67,43,18,30.43,30.29,5,0,10,0.00